User: anonymous   Login
Location: Vancouver
(49.2500°N, 123.1330°W)
Time: 15:43:38
(UTC-08:00)
Language:

Cosmos 1340 Rocket - Orbit

View from above orbital plane
View from above orbital plane
View from above satellite
View from above satellite

Ground track
Ground track

The orbit data is extracted from the following two-line orbital elements,

1 13068U 82013B   16038.54485099  .00001231  00000-0  81610-4 0  9991
2 13068  81.2009  68.0957 0022698 149.0376 211.2192 15.06382036848868
Epoch (UTC): 07 February 2016 13:04:35
Eccentricity: 0.0022698
inclination: 81.2009°
perigee height: 531 km
apogee height: 563 km
right ascension of ascending node: 68.0957°
argument of perigee: 149.0376°
revolutions per day: 15.06382036
mean anomaly at epoch: 211.2192°
orbit number at epoch: 84886

The dashed part of the orbit path shows where the satellite is in the earth's shadow,  

DLR